Location: Arboyeti
(42.1122°N, 44.6017°E)
Time: 19:28:21
(UTC+00:00)

Cosmos 1908 Rocket - Pass Details

Date: 19 April 2021
Orbit: 607 x 631 km, 82.5° (Epoch: 18 May)

Event Time Altitude Azimuth Distance (km) Brightness Sun altitude
Rises 23:25:38 0° 349° (N) 2,911 7.5 -26.9°
Reaches altitude 10° 23:27:52 10° 348° (NNW) 2,004 6.6 -26.6°
Enters shadow 23:31:00 44° 334° (NNW) 868 4.4 -26.2°
